Wetbulb
55.30 54.12 50.60 49.23 41.88 38.91 36.60 38.59 43.98 43.84 45.94 49.25 49.41 48.63 49.22 50.53 49.43 47.14 55.75 61.05 63.17 66.56 67.19 68.57 69.64 69.75 69.00 67.91 66.88 65.67 64.32 63.25 62.80 62.74 62.65 62.53 62.57 62.86 63.59 64.52 65.35 66.05 67.98 68.68 69.70 70.40 70.87 70.94 70.48
53.82 52.21 50.04 45.13 36.91 33.49 34.44 39.73 41.33 44.14 48.58 49.53 49.91 49.98 50.01 49.74 53.01 53.42 57.89 60.57 65.03 66.05 66.43 66.94 67.86 68.14 67.04 65.74 64.65 63.52 62.30 61.83 61.12 60.56 60.17 60.26 60.50 60.82 61.12 61.44 61.95 62.98 64.68 66.31 67.80 69.07 69.66 69.51 69.92
54.17 50.64 45.30 41.23 35.12 33.69 36.10 40.81 43.08 46.61 49.31 49.36 49.52 51.22 50.00 50.50 52.57 53.71 57.35 62.08 63.66 63.88 64.07 65.36 66.59 66.29 65.22 64.05 63.06 61.89 60.75 59.68 58.74 58.34 58.65 59.14 59.53 59.84 60.14 60.50 60.76 61.22 61.87 62.87 64.46 66.23 66.87 67.04 67.91
50.03 47.22 43.16 38.81 36.79 39.15 39.58 42.50 45.18 48.09 49.45 50.16 50.47 49.03 51.68 53.66 53.68 54.26 59.15 62.10 62.28 61.46 62.70 64.57 65.63 64.83 63.93 62.62 61.37 60.28 58.87 57.72 56.93 57.20 57.78 58.28 58.76 59.08 59.26 59.53 60.06 60.42 60.57 61.18 62.09 62.78 63.90 64.52 65.53
47.10 41.94 36.20 35.67 36.87 39.87 41.13 42.64 44.00 46.27 46.95 48.29 49.12 48.45 49.80 51.86 52.84 56.81 59.70 60.56 60.38 59.20 60.64 62.51 64.35 63.72 62.50 61.09 59.92 58.20 56.69 55.67 55.42 56.02 56.76 57.19 57.37 57.55 57.91 58.42 58.78 59.14 59.49 60.01 60.34 60.96 61.44 62.09 62.90
43.17 42.21 34.79 32.75 35.24 39.57 41.55 42.80 44.25 45.78 46.49 46.72 48.29 48.66 49.66 51.24 52.73 56.09 57.81 58.57 58.49 57.61 58.73 60.78 61.39 62.00 61.10 59.31 57.81 56.22 54.97 54.48 54.72 55.53 55.97 56.25 56.34 56.65 57.25 57.85 58.08 58.29 58.67 58.98 59.18 59.43 59.74 60.09 60.87
42.30 39.65 35.79 36.16 37.23 39.17 42.09 44.03 43.62 44.58 44.73 45.97 49.17 47.27 50.23 50.48 51.93 55.30 56.12 55.81 55.82 56.23 57.02 58.03 57.71 57.78 58.39 58.72 57.64 55.39 54.31 53.81 54.26 55.09 55.50 55.53 55.41 55.81 55.93 55.72 55.66 56.61 57.51 57.75 58.07 58.43 58.68 59.05 59.53
43.04 41.20 37.89 37.02 37.86 39.09 43.04 44.53 46.35 44.71 44.73 47.47 49.65 46.80 47.62 50.53 50.87 53.00 53.43 53.26 53.41 54.21 54.80 54.21 53.72 54.51 54.57 55.23 56.10 55.95 54.67 53.90 53.86 54.29 54.25 53.94 54.15 54.28 54.64 54.59 54.07 55.22 55.68 56.11 56.17 56.47 56.88 57.49 58.38
46.13 39.53 35.73 38.58 39.55 41.56 43.88 43.34 46.11 46.43 44.47 45.56 47.52 48.08 48.96 49.34 49.58 50.02 49.79 50.07 50.66 51.44 51.92 50.91 50.90 51.43 51.60 51.26 50.43 52.42 51.99 51.96 51.55 51.31 51.89 52.57 52.44 52.91 53.68 53.74 55.02 55.65 55.47 55.38 55.21 55.47 55.62 56.17 56.85
42.79 38.15 39.06 41.49 41.50 40.74 42.94 41.91 43.77 43.54 43.44 44.04 45.88 47.26 48.63 48.76 48.38 49.04 48.64 49.36 48.55 49.52 49.78 49.41 49.19 49.45 49.28 49.14 49.23 48.90 49.00 49.24 49.62 50.73 50.98 51.64 52.11 52.69 53.37 52.80 53.68 54.08 53.99 54.83 55.58 55.07 55.01 55.02 55.65
42.39 38.90 40.26 41.34 42.42 43.23 42.18 42.07 43.60 42.14 41.59 43.78 44.63 45.76 47.37 47.82 47.62 47.78 48.07 48.80 49.48 49.39 49.22 48.46 48.14 48.14 47.97 47.75 47.90 47.93 48.15 48.98 50.29 50.54 51.11 51.84 52.20 52.80 52.91 52.94 53.01 53.33 52.64 53.48 53.43 53.11 53.81 54.50 55.94
40.18 41.56 41.02 43.32 43.28 42.89 41.33 43.06 42.62 42.44 43.85 45.66 45.23 46.28 46.98 47.17 47.54 47.88 48.35 48.49 47.85 47.84 48.85 48.21 47.49 46.84 46.58 46.65 47.33 47.22 48.28 49.60 50.21 50.57 50.94 51.58 51.80 51.56 51.64 52.03 52.43 52.85 53.40 52.89 52.88 53.59 53.90 55.69 55.58
40.27 40.86 41.24 42.39 42.02 41.65 42.56 42.13 41.87 42.45 44.42 45.00 44.73 44.79 45.64 46.52 47.58 48.50 49.40 48.76 47.87 47.65 48.04 47.34 46.50 46.32 45.92 45.94 46.26 47.72 48.94 49.50 49.91 50.31 51.15 51.85 51.34 50.86 51.45 51.69 51.87 51.87 52.55 51.97 52.98 53.79 55.57 55.60 55.22
42.05 41.42 41.87 42.76 42.63 42.43 41.33 41.19 41.59 43.44 44.34 44.38 44.40 44.67 44.19 44.51 46.80 47.21 47.19 48.16 47.45 48.04 47.97 46.94 45.76 45.99 45.68 45.64 46.57 48.34 48.99 49.57 50.16 50.77 51.36 52.17 52.79 52.41 51.72 51.38 51.09 51.37 51.48 52.82 53.56 54.95 55.87 56.76 57.91
42.78 39.99 40.66 41.12 41.65 41.55 41.75 40.42 39.86 44.00 43.95 43.89 43.81 44.11 44.33 44.20 44.75 47.00 48.86 48.12 48.55 48.28 47.77 46.36 45.60 45.38 45.27 45.87 47.83 48.73 49.57 50.64 50.63 50.82 51.36 52.05 52.80 52.53 51.74 50.85 50.54 50.82 51.64 52.29 53.39 57.37 57.84 55.94 54.75
38.51 38.25 35.47 40.01 40.71 41.53 40.55 38.89 43.23 43.35 42.16 43.73 43.77 44.19 44.52 44.90 44.83 45.69 47.17 47.95 47.77 47.57 46.90 45.82 46.28 44.73 45.44 47.16 48.24 48.95 49.49 49.94 50.15 50.68 51.32 51.72 51.58 51.92 50.90 50.52 50.41 50.89 51.53 52.93 55.36 54.95 52.61 51.85 51.27
35.50 32.66 33.92 37.68 40.84 40.19 39.04 38.83 42.76 42.90 42.67 43.99 45.29 44.31 44.44 44.56 44.87 45.42 45.38 46.81 46.90 47.06 45.65 44.67 45.00 44.67 46.64 47.65 47.98 48.08 48.42 48.98 49.45 50.24 50.84 50.68 50.86 50.99 50.84 50.40 50.32 50.68 51.89 54.92 54.59 53.59 52.65 50.44 50.28
32.11 32.28 33.46 33.67 38.37 38.42 37.33 38.17 42.09 43.32 42.36 43.71 45.15 43.50 42.84 43.30 44.13 44.35 44.68 45.15 45.72 45.17 44.71 44.26 44.50 46.01 47.14 47.18 47.06 47.58 48.24 49.29 50.13 50.25 50.74 49.94 50.19 50.19 50.15 49.91 50.12 51.70 54.27 54.28 52.89 52.29 52.06 50.65 50.12
34.43 32.95 32.71 35.55 37.95 36.62 36.50 37.17 40.18 43.44 41.71 42.43 43.57 42.26 41.70 41.89 43.06 42.24 43.07 43.48 42.54 42.80 43.26 43.96 45.01 46.03 46.46 46.34 46.43 46.75 47.48 48.42 49.60 49.65 49.62 49.51 49.25 49.59 49.53 49.94 51.03 53.63 54.34 52.99 52.65 51.91 51.55 51.31 52.53
34.19 32.05 31.85 35.91 37.07 36.45 35.48 37.07 41.35 41.48 41.27 41.25 40.54 40.93 41.29 41.55 42.09 41.07 41.00 41.41 42.54 41.90 42.97 44.35 45.29 45.90 45.99 46.16 45.97 46.85 47.57 49.15 49.85 48.86 48.64 49.00 49.15 50.03 49.56 50.15 51.48 53.85 53.26 52.90 52.24 52.43 52.02 52.45 52.71
32.70 32.10 31.90 32.85 35.95 35.52 33.31 35.05 37.29 39.73 39.44 39.64 39.96 40.26 40.90 40.88 40.83 40.50 40.03 39.79 40.51 41.63 43.15 44.64 45.42 45.71 45.90 46.17 46.57 47.30 49.08 50.40 49.52 49.04 47.92 48.53 48.89 49.52 49.81 50.45 53.85 54.19 53.77 52.82 52.61 53.03 51.87 51.10 51.32
30.62 35.68 34.92 34.18 33.10 29.81 33.60 29.19 32.09 37.43 36.95 38.59 38.59 39.41 39.25 39.64 40.38 39.91 39.34 38.93 39.90 41.33 44.07 44.96 45.33 45.59 45.85 46.22 46.31 46.69 47.21 46.69 48.05 48.74 48.36 48.46 48.99 49.72 50.18 51.03 54.83 53.84 53.79 52.76 53.09 53.37 52.83 52.34 49.43
33.44 36.41 35.04 33.55 31.40 30.03 30.54 28.23 33.79 34.58 34.55 36.60 37.99 38.12 38.43 39.39 39.04 39.04 38.92 38.97 40.53 42.55 43.56 44.41 44.99 45.40 45.63 46.08 46.20 47.16 46.72 48.21 49.26 49.01 47.50 48.07 49.49 50.29 50.29 51.95 55.05 53.77 53.91 53.32 53.40 52.60 52.48 52.03 50.72
36.45 34.15 32.82 30.61 29.30 22.64 26.45 27.92 31.51 30.59 31.44 32.91 34.54 35.54 37.90 38.62 37.94 37.73 38.12 39.57 40.79 42.47 43.15 43.97 44.54 44.54 45.27 45.49 45.81 46.63 46.66 47.49 47.74 46.95 47.16 48.39 49.55 50.43 51.50 53.04 55.16 54.03 53.29 53.52 53.36 53.12 53.34 52.45 50.61
33.76 32.77 26.35 22.78 21.38 24.10 27.07 25.89 31.33 31.89 30.95 31.18 31.99 33.57 35.38 37.97 37.74 37.45 37.31 38.33 40.38 41.56 42.50 43.27 43.82 43.78 44.49 44.84 45.12 45.88 46.20 46.84 47.36 47.26 47.67 48.22 49.40 50.93 52.19 54.50 54.60 53.19 52.64 53.32 53.45 53.42 53.53 52.51 50.46
31.02 31.84 26.33 19.25 18.47 22.48 27.72 24.43 30.00 31.37 32.49 32.63 33.01 32.68 33.42 35.45 37.30 37.18 37.23 37.98 39.81 41.18 41.95 43.14 43.18 43.40 43.89 44.23 44.66 45.28 45.53 46.45 47.11 48.09 48.74 49.41 50.22 51.56 53.39 55.06 54.68 53.75 52.52 52.52 52.99 53.38 53.53 52.46 51.52
31.54 29.23 30.70 24.17 17.96 20.32 24.76 28.30 32.39 31.65 31.19 30.86 30.41 30.25 29.92 31.35 33.79 35.61 36.60 37.48 39.01 40.51 41.34 42.12 42.85 43.15 43.37 43.68 44.07 44.55 45.06 45.47 46.50 47.79 50.52 51.46 52.22 52.10 54.27 54.46 53.54 53.32 53.09 52.74 53.10 52.96 52.34 51.42 51.22
32.04 34.13 27.79 25.88 15.36 15.62 21.82 24.77 26.49 27.70 27.52 28.89 28.17 28.13 28.43 29.60 31.21 32.81 34.34 35.07 36.66 38.34 39.75 41.15 42.05 42.23 42.63 43.31 43.64 44.26 44.60 44.94 45.67 46.77 49.27 50.26 51.29 52.40 52.84 53.95 52.71 52.42 53.01 52.91 52.42 52.48 52.31 51.52 50.24
30.65 29.00 28.68 29.46 26.11 20.61 18.68 23.99 28.33 26.82 27.43 27.00 27.46 28.41 27.96 28.06 28.85 30.36 32.01 32.43 33.04 34.16 35.03 37.10 39.40 40.71 41.60 42.36 43.01 43.33 44.19 44.76 44.92 45.58 47.00 48.82 49.81 51.36 52.66 53.45 53.10 52.35 52.24 52.89 52.26 51.72 51.80 51.44 50.06
31.38 30.89 30.38 24.77 21.78 23.58 24.99 23.83 29.73 28.44 28.17 27.84 27.13 27.99 28.60 28.45 28.24 28.88 29.71 30.50 30.21 30.34 31.33 32.48 34.37 36.30 39.28 41.47 42.01 42.47 43.31 44.20 44.33 44.82 45.76 47.30 48.45 50.43 52.35 52.73 53.00 52.76 52.33 52.20 52.00 51.34 51.41 50.67 49.56
MSLP
1013.61 1013.69 1013.77 1014.20 1015.69 1016.02 1015.58 1015.06 1014.41 1013.82 1013.37 1012.74 1012.78 1012.85 1012.85 1012.90 1013.43 1014.26 1013.91 1014.05 1013.98 1014.14 1014.26 1014.58 1014.78 1015.02 1015.27 1015.66 1015.90 1016.29 1016.70 1016.84 1016.97 1017.19 1017.29 1017.25 1017.23 1017.10 1017.04 1016.99 1016.97 1016.90 1016.63 1016.53 1016.37 1016.21 1016.09 1016.11 1016.18
1013.80 1013.79 1014.23 1015.13 1015.88 1016.09 1015.31 1014.56 1014.04 1013.28 1012.90 1012.73 1012.74 1012.80 1012.92 1012.89 1013.15 1013.63 1014.00 1014.20 1014.22 1014.21 1014.52 1014.81 1014.97 1015.39 1015.68 1015.91 1016.10 1016.40 1016.71 1016.92 1017.12 1017.28 1017.41 1017.37 1017.34 1017.27 1017.25 1017.13 1017.10 1017.05 1016.86 1016.71 1016.51 1016.30 1016.22 1016.19 1016.14
1013.79 1013.82 1014.99 1015.73 1016.08 1015.76 1014.91 1013.95 1013.45 1012.97 1012.82 1012.79 1012.68 1012.58 1012.82 1013.07 1013.32 1013.53 1013.71 1014.09 1014.35 1014.51 1014.85 1015.17 1015.45 1015.60 1015.93 1016.00 1016.16 1016.50 1016.71 1016.96 1017.21 1017.39 1017.50 1017.48 1017.49 1017.42 1017.35 1017.27 1017.22 1017.12 1016.96 1016.79 1016.66 1016.45 1016.37 1016.37 1016.32
1014.03 1014.60 1015.96 1015.86 1015.74 1015.05 1014.48 1013.55 1013.20 1013.05 1012.86 1012.82 1012.68 1012.78 1012.92 1012.99 1013.27 1013.56 1013.88 1014.22 1014.52 1014.84 1015.17 1015.34 1015.78 1015.86 1016.03 1016.22 1016.37 1016.57 1016.93 1017.03 1017.30 1017.45 1017.60 1017.60 1017.61 1017.62 1017.51 1017.40 1017.28 1017.19 1017.07 1016.90 1016.72 1016.60 1016.48 1016.37 1016.35
1014.41 1015.13 1015.93 1015.88 1015.33 1014.60 1013.85 1013.55 1013.12 1012.93 1012.88 1012.84 1012.76 1012.88 1013.04 1013.32 1013.86 1013.93 1014.13 1014.53 1014.71 1015.18 1015.42 1015.55 1015.65 1015.91 1016.17 1016.24 1016.40 1016.71 1016.96 1017.13 1017.38 1017.48 1017.56 1017.60 1017.65 1017.63 1017.59 1017.50 1017.33 1017.21 1017.08 1016.91 1016.74 1016.61 1016.54 1016.43 1016.31
1014.95 1015.22 1015.82 1015.61 1014.98 1014.02 1013.45 1013.10 1013.02 1012.90 1012.78 1012.86 1012.94 1012.91 1013.09 1013.42 1013.90 1014.26 1014.37 1014.64 1014.88 1015.16 1015.59 1015.65 1015.85 1015.90 1016.32 1016.40 1016.51 1016.81 1017.02 1017.17 1017.38 1017.38 1017.45 1017.58 1017.69 1017.74 1017.67 1017.56 1017.39 1017.24 1017.09 1016.90 1016.70 1016.58 1016.50 1016.42 1016.33
1014.73 1015.12 1015.31 1015.11 1014.52 1013.76 1012.92 1012.72 1012.93 1012.71 1012.75 1012.62 1012.67 1012.90 1013.05 1013.48 1013.95 1014.37 1014.56 1014.86 1015.15 1015.51 1015.88 1016.18 1016.13 1016.32 1016.40 1016.60 1016.70 1016.90 1017.06 1017.23 1017.43 1017.45 1017.52 1017.64 1017.81 1017.81 1017.74 1017.63 1017.49 1017.30 1017.05 1016.82 1016.65 1016.49 1016.30 1016.17 1016.10
1014.67 1014.90 1015.17 1014.81 1014.28 1013.28 1012.67 1012.52 1012.51 1012.74 1012.54 1012.63 1012.61 1012.93 1013.28 1013.63 1014.21 1014.71 1015.03 1015.35 1015.59 1015.78 1016.00 1016.16 1016.32 1016.66 1016.77 1016.77 1016.82 1017.01 1017.15 1017.35 1017.52 1017.56 1017.62 1017.71 1017.77 1017.82 1017.75 1017.61 1017.51 1017.21 1017.03 1016.86 1016.65 1016.48 1016.32 1016.04 1015.84
1014.34 1015.01 1015.11 1014.48 1014.04 1012.95 1012.58 1012.64 1012.64 1012.67 1012.66 1012.84 1012.79 1012.80 1013.23 1013.90 1014.51 1015.02 1015.45 1015.71 1015.81 1015.94 1016.15 1016.20 1016.40 1016.51 1016.98 1016.97 1017.14 1017.14 1017.29 1017.49 1017.65 1017.68 1017.68 1017.75 1017.83 1017.85 1017.71 1017.65 1017.45 1017.13 1016.88 1016.68 1016.49 1016.29 1016.06 1015.88 1015.76
1014.51 1014.84 1014.27 1013.65 1013.32 1012.98 1012.92 1012.95 1012.96 1012.98 1012.83 1012.88 1012.82 1012.91 1013.63 1014.10 1014.46 1014.85 1015.10 1015.28 1015.65 1015.71 1015.97 1016.05 1016.36 1016.39 1016.93 1017.01 1017.29 1017.39 1017.44 1017.70 1017.81 1017.79 1017.79 1017.79 1017.83 1017.82 1017.72 1017.60 1017.49 1017.23 1017.10 1016.80 1016.40 1016.10 1015.90 1015.79 1015.58
1014.41 1014.20 1013.80 1013.30 1013.04 1013.06 1013.05 1013.11 1013.04 1013.00 1012.91 1012.43 1012.37 1012.72 1013.62 1014.15 1014.51 1014.81 1014.81 1014.84 1014.86 1015.38 1015.77 1015.96 1016.24 1016.49 1016.87 1017.08 1017.44 1017.61 1017.69 1017.82 1017.87 1017.83 1017.80 1017.81 1017.81 1017.77 1017.68 1017.60 1017.44 1017.24 1016.91 1016.62 1016.33 1015.94 1015.76 1015.47 1015.20
1014.40 1013.99 1013.77 1013.43 1013.15 1013.42 1013.43 1013.28 1013.10 1012.79 1012.03 1011.67 1012.10 1012.46 1013.18 1013.76 1014.07 1014.26 1014.31 1014.45 1014.65 1014.98 1015.33 1015.63 1016.13 1016.41 1016.85 1017.22 1017.56 1017.65 1017.68 1017.80 1017.80 1017.79 1017.81 1017.86 1017.77 1017.73 1017.63 1017.52 1017.39 1017.13 1016.86 1016.55 1016.19 1015.79 1015.47 1015.10 1014.87
1014.31 1013.75 1013.72 1013.51 1013.51 1013.57 1013.56 1013.40 1013.23 1012.06 1011.66 1011.77 1012.14 1012.63 1012.86 1013.25 1013.50 1013.65 1013.75 1014.10 1014.45 1014.73 1015.09 1015.34 1015.85 1016.25 1016.78 1017.20 1017.55 1017.63 1017.66 1017.73 1017.75 1017.77 1017.74 1017.71 1017.61 1017.45 1017.45 1017.41 1017.30 1017.05 1016.78 1016.57 1016.03 1015.59 1015.21 1014.86 1014.57
1013.76 1013.62 1013.52 1013.30 1013.39 1013.68 1013.71 1013.45 1013.31 1011.43 1011.39 1011.62 1011.86 1012.20 1012.65 1012.69 1012.96 1013.27 1013.46 1013.60 1014.02 1014.28 1014.55 1015.06 1015.63 1016.04 1016.63 1017.06 1017.35 1017.51 1017.68 1017.70 1017.73 1017.66 1017.65 1017.60 1017.45 1017.19 1017.13 1017.24 1017.15 1017.08 1016.99 1016.49 1016.09 1015.70 1015.38 1014.91 1014.57
1014.15 1014.15 1013.70 1013.41 1013.74 1013.81 1013.74 1013.34 1012.51 1011.26 1011.51 1011.51 1011.76 1012.08 1012.10 1012.10 1012.60 1012.34 1012.29 1012.67 1013.11 1013.58 1014.32 1014.69 1015.38 1016.11 1016.51 1016.98 1017.23 1017.49 1017.61 1017.61 1017.66 1017.67 1017.65 1017.49 1017.35 1017.28 1017.27 1017.29 1017.27 1017.15 1016.81 1016.39 1015.85 1015.31 1015.23 1015.35 1015.50
1014.14 1014.15 1014.06 1013.50 1013.78 1013.76 1013.68 1012.47 1011.67 1011.40 1011.57 1011.63 1011.77 1011.69 1011.73 1011.64 1011.77 1011.54 1011.76 1012.05 1012.59 1013.36 1014.18 1014.77 1015.27 1015.87 1016.47 1016.87 1017.13 1017.37 1017.54 1017.66 1017.70 1017.73 1017.62 1017.50 1017.41 1017.35 1017.33 1017.34 1017.33 1017.15 1016.81 1016.55 1016.22 1016.01 1015.89 1016.28 1016.52
1014.84 1014.66 1014.35 1013.66 1013.88 1013.57 1013.77 1013.11 1011.90 1011.78 1011.82 1011.55 1011.11 1011.12 1011.21 1011.15 1011.14 1011.14 1011.14 1011.46 1011.98 1012.80 1013.93 1014.79 1015.51 1016.10 1016.31 1016.85 1017.14 1017.38 1017.54 1017.69 1017.78 1017.76 1017.60 1017.51 1017.46 1017.43 1017.38 1017.32 1017.28 1017.14 1016.68 1016.42 1016.51 1016.69 1016.31 1016.82 1017.19
1014.75 1014.69 1014.44 1014.10 1014.09 1013.96 1014.10 1013.27 1012.28 1011.99 1011.84 1011.32 1010.65 1010.90 1011.06 1011.16 1010.96 1010.96 1010.98 1011.38 1011.99 1012.62 1013.67 1014.49 1015.24 1016.12 1016.44 1016.86 1017.17 1017.49 1017.55 1017.62 1017.72 1017.79 1017.69 1017.60 1017.52 1017.46 1017.41 1017.39 1017.23 1016.94 1016.77 1016.82 1017.02 1017.18 1017.04 1017.21 1017.60
1014.53 1014.64 1014.42 1014.21 1014.33 1014.53 1014.32 1013.66 1012.64 1011.55 1011.37 1011.10 1011.10 1011.10 1011.22 1011.23 1011.28 1011.44 1011.55 1012.07 1012.58 1013.40 1014.24 1014.86 1015.57 1016.36 1016.55 1017.01 1017.20 1017.53 1017.54 1017.67 1017.74 1017.80 1017.72 1017.71 1017.62 1017.46 1017.42 1017.37 1017.12 1016.85 1017.04 1017.25 1017.47 1017.68 1017.26 1017.54 1017.07
1015.05 1015.18 1015.00 1014.93 1014.85 1014.97 1014.73 1013.19 1012.15 1011.38 1011.24 1011.65 1011.66 1011.50 1011.74 1011.77 1011.77 1012.15 1012.55 1013.01 1013.15 1013.39 1014.27 1015.06 1015.65 1016.11 1016.74 1017.11 1017.23 1017.35 1017.47 1017.41 1017.55 1017.81 1017.81 1017.84 1017.73 1017.51 1017.47 1017.38 1017.23 1017.17 1017.30 1017.55 1017.78 1017.73 1017.68 1017.66 1017.59
1015.34 1015.46 1015.51 1015.62 1015.50 1015.53 1015.46 1013.75 1012.54 1011.59 1011.82 1012.09 1012.15 1012.29 1012.34 1012.52 1012.75 1013.01 1013.51 1013.87 1014.07 1014.37 1014.88 1015.28 1015.91 1016.34 1016.57 1017.14 1017.47 1017.55 1017.40 1017.26 1017.42 1017.79 1017.92 1017.88 1017.78 1017.54 1017.48 1017.42 1017.14 1017.33 1017.46 1017.73 1017.81 1017.94 1017.91 1017.84 1018.01
1015.51 1015.11 1015.66 1015.81 1016.39 1016.82 1016.54 1015.87 1014.00 1012.78 1013.04 1013.00 1013.28 1013.35 1013.53 1013.81 1013.68 1013.90 1014.24 1014.69 1014.59 1015.17 1015.47 1016.03 1016.10 1016.60 1016.91 1017.15 1017.63 1017.59 1017.46 1017.35 1017.53 1017.82 1017.93 1017.89 1017.77 1017.57 1017.47 1017.34 1017.20 1017.48 1017.64 1017.95 1018.02 1018.02 1018.18 1018.23 1018.48
1015.35 1015.49 1016.12 1016.40 1016.89 1017.49 1017.51 1017.39 1014.46 1014.09 1014.20 1014.31 1014.64 1014.91 1014.72 1014.68 1014.80 1014.94 1015.29 1015.31 1015.30 1015.67 1016.02 1016.23 1016.27 1016.62 1017.30 1017.31 1017.65 1017.75 1017.65 1017.49 1017.51 1017.79 1017.90 1017.94 1017.80 1017.64 1017.47 1017.36 1017.28 1017.52 1017.76 1018.02 1018.26 1018.22 1018.36 1018.63 1018.91
1015.54 1016.01 1016.79 1017.43 1017.80 1018.30 1018.22 1018.09 1016.19 1016.49 1017.35 1016.54 1016.76 1016.48 1016.19 1015.76 1015.81 1015.96 1016.11 1016.27 1016.38 1016.38 1016.48 1016.77 1016.68 1016.82 1017.33 1017.61 1017.66 1017.85 1017.83 1017.80 1017.81 1017.89 1017.94 1017.92 1017.77 1017.65 1017.51 1017.31 1017.25 1017.53 1017.74 1018.01 1018.18 1018.37 1018.34 1018.62 1018.86
1015.49 1016.23 1017.46 1018.42 1018.96 1018.79 1018.75 1019.18 1017.00 1017.85 1018.61 1018.85 1018.91 1018.47 1017.87 1017.06 1016.82 1016.92 1016.95 1016.94 1017.43 1017.51 1017.18 1017.19 1017.36 1017.41 1017.41 1017.80 1017.70 1017.81 1017.89 1017.94 1017.95 1017.89 1017.86 1017.86 1017.76 1017.64 1017.48 1017.33 1017.32 1017.53 1017.71 1017.92 1018.20 1018.46 1018.69 1018.79 1018.86
1015.90 1016.19 1016.95 1017.96 1019.23 1019.17 1019.26 1018.47 1017.62 1018.70 1019.40 1019.73 1019.92 1020.03 1019.34 1018.77 1018.25 1017.69 1017.72 1017.68 1017.76 1018.27 1018.24 1017.98 1017.69 1017.68 1017.60 1017.84 1017.81 1017.84 1017.93 1017.97 1017.92 1017.90 1017.81 1017.68 1017.62 1017.48 1017.20 1017.08 1017.23 1017.42 1017.73 1017.95 1018.17 1018.48 1018.55 1018.86 1019.02
1016.00 1016.23 1016.51 1017.86 1019.72 1019.36 1018.28 1017.71 1018.24 1018.94 1019.89 1020.51 1020.90 1020.67 1020.53 1020.38 1019.93 1019.39 1018.47 1018.82 1018.72 1018.28 1018.89 1018.64 1018.15 1018.06 1017.84 1017.97 1017.96 1017.86 1018.01 1018.00 1017.90 1017.87 1017.73 1017.62 1017.47 1017.35 1017.22 1017.07 1017.28 1017.40 1017.54 1017.82 1018.03 1018.33 1018.62 1018.79 1018.99
1015.07 1015.51 1016.49 1017.51 1018.94 1019.12 1018.41 1018.62 1018.81 1020.08 1021.34 1022.04 1022.40 1022.39 1022.09 1021.42 1020.98 1020.59 1020.46 1019.73 1019.89 1019.31 1019.19 1018.99 1018.61 1018.58 1018.29 1018.07 1018.08 1017.88 1017.85 1017.96 1017.93 1017.82 1017.70 1017.69 1017.53 1017.35 1017.28 1017.21 1017.28 1017.41 1017.55 1017.67 1018.01 1018.21 1018.46 1018.80 1019.00
1015.63 1015.62 1016.18 1016.72 1017.31 1017.93 1018.89 1019.22 1020.41 1021.71 1022.77 1023.28 1023.65 1023.60 1023.33 1022.90 1022.37 1021.86 1021.54 1021.39 1021.35 1020.55 1020.03 1019.61 1019.09 1018.92 1018.71 1018.36 1018.23 1018.07 1017.94 1017.88 1017.91 1017.83 1017.71 1017.65 1017.59 1017.43 1017.30 1017.26 1017.29 1017.33 1017.46 1017.66 1017.85 1018.06 1018.20 1018.49 1018.86
1015.28 1015.26 1015.46 1015.94 1017.17 1017.89 1018.74 1019.85 1021.22 1022.11 1023.44 1024.20 1024.36 1024.09 1024.15 1024.14 1023.60 1022.90 1022.51 1022.39 1022.21 1021.81 1021.24 1020.66 1020.04 1019.63 1019.21 1018.70 1018.33 1018.10 1018.03 1017.96 1017.91 1017.83 1017.70 1017.60 1017.53 1017.37 1017.25 1017.20 1017.21 1017.23 1017.29 1017.46 1017.63 1017.79 1018.00 1018.22 1018.44
Wind_Speed
2 2 2 5 3 4 2 5 2 3 2 2 3 4 4 3 5 4 2 6 3 12 9 6 10 10 11 10 10 8 5 4 3 4 4 5 5 6 7 8 8 10 9 10 11 12 13 10 8
1 2 5 3 4 2 4 3 5 4 1 1 3 1 1 3 1 1 4 5 8 10 7 6 10 10 11 10 10 8 6 4 4 4 5 6 7 7 8 8 9 10 10 11 13 12 13 13 11
2 4 4 4 3 4 4 5 3 2 1 2 0 2 1 2 2 2 2 11 9 8 7 8 10 12 11 10 9 8 6 5 4 4 6 6 7 8 8 9 9 10 11 12 13 14 13 12 12
1 4 4 3 4 5 4 3 1 2 1 2 1 4 2 1 3 2 9 12 12 9 8 10 10 11 10 9 9 8 6 6 5 5 5 6 7 8 9 10 10 11 12 13 13 13 14 12 11
3 3 4 2 4 5 4 5 2 2 1 2 2 2 3 2 3 5 12 10 12 9 7 8 10 10 10 9 9 7 5 5 4 4 5 6 7 8 9 10 11 11 12 12 13 14 14 13 12
4 3 3 3 5 4 4 5 1 3 3 2 2 0 4 2 4 6 9 10 9 10 7 6 8 9 9 8 8 6 5 4 3 4 5 6 8 9 10 10 10 11 12 12 12 13 13 13 14
5 4 3 3 3 4 4 6 3 3 3 5 2 2 2 1 4 8 9 8 8 7 7 5 5 6 8 7 6 5 4 2 3 5 6 6 8 8 7 7 8 11 12 13 13 14 14 13 13
4 4 2 4 4 4 1 3 1 4 4 3 3 4 4 2 7 8 6 6 7 6 6 6 5 4 3 3 4 3 2 3 4 5 5 6 6 6 5 6 5 10 10 11 12 13 14 14 14
3 4 2 4 5 3 2 3 0 1 1 2 5 3 1 6 9 7 4 4 5 5 6 6 5 5 3 3 1 4 5 5 5 5 6 4 3 4 6 7 12 13 12 13 14 14 15 14 13
4 4 9 5 4 2 1 2 2 2 0 3 5 2 4 7 7 10 9 11 9 10 7 7 6 6 4 2 3 2 3 2 3 3 4 3 3 4 5 6 9 10 12 14 13 13 13 11 7
5 5 4 3 3 1 1 2 2 3 5 9 6 4 4 5 6 8 8 9 12 8 6 8 7 5 5 3 2 1 1 1 1 3 2 2 2 2 3 3 3 5 6 5 8 8 5 8 7
3 5 4 1 2 1 2 4 5 7 8 2 8 2 5 8 11 13 12 12 8 9 10 8 7 6 5 3 2 1 0 0 1 2 3 2 2 2 3 3 4 4 4 7 7 5 8 9 6
2 3 4 4 3 4 2 7 6 12 10 8 6 5 7 8 10 9 9 6 6 9 9 9 8 7 5 4 2 1 0 1 2 3 3 3 3 3 2 3 4 4 5 6 7 7 7 6 4
5 2 3 3 4 3 3 4 2 4 1 3 3 6 7 9 10 5 8 11 10 8 10 8 9 7 6 4 3 1 0 1 2 3 3 4 3 4 1 2 4 4 5 6 6 8 4 2 4
4 2 2 5 2 5 6 7 9 6 5 7 7 7 7 8 7 14 12 12 11 8 7 10 8 7 6 5 3 2 0 1 2 2 3 3 3 3 2 2 4 4 5 7 5 3 6 8 7
2 4 2 2 3 2 1 9 5 5 2 7 8 7 7 7 9 11 10 9 9 8 10 8 8 8 6 5 3 1 0 0 1 2 2 3 3 2 2 2 3 4 5 5 3 6 7 7 7
4 4 3 2 1 2 3 6 4 2 7 14 12 9 8 9 8 9 9 9 10 10 10 10 8 8 7 5 3 2 1 0 1 2 2 3 2 2 1 2 3 4 4 1 6 6 8 7 6
5 3 3 2 4 2 3 13 15 8 6 14 15 10 9 9 9 6 5 6 7 9 10 10 8 8 7 5 3 2 1 1 0 1 1 2 1 1 1 2 3 4 2 5 5 8 8 6 7
5 2 2 0 2 2 4 9 16 14 9 14 12 9 8 7 4 6 5 5 8 8 10 10 10 7 6 2 2 1 1 1 1 2 3 1 1 1 1 1 3 3 4 7 8 5 10 4 4
3 2 2 3 2 0 6 18 13 9 6 5 8 8 7 7 6 6 5 3 4 10 10 9 8 8 4 2 2 1 2 1 2 1 1 1 1 1 1 1 2 3 5 8 6 2 1 2 3
2 4 3 4 4 3 6 10 7 4 4 6 8 6 4 6 7 5 5 3 5 8 9 8 7 7 5 4 3 1 1 1 1 1 1 1 1 1 0 1 2 4 3 4 4 3 3 2 3
3 5 5 3 3 3 3 7 7 6 9 6 10 12 8 9 7 4 3 3 5 5 6 6 6 6 4 5 2 1 1 1 1 0 1 1 1 1 2 2 4 4 4 4 3 2 3 3 3
5 5 5 3 4 2 3 3 9 4 5 10 12 15 14 8 7 6 3 3 4 6 5 5 6 6 3 3 2 1 2 1 2 0 1 1 1 2 2 1 4 5 3 4 4 3 4 2 1
8 6 6 4 3 2 2 3 6 5 7 8 12 15 14 11 9 6 5 4 5 4 5 4 5 5 3 2 3 2 2 2 1 1 1 1 1 1 3 3 3 5 5 5 5 3 5 4 2
2 4 2 4 3 5 2 2 6 4 4 8 13 15 16 11 8 6 5 5 4 3 4 4 3 3 3 1 1 2 1 2 3 2 2 2 1 2 4 4 4 4 5 4 5 4 3 3 3
6 3 6 7 4 2 3 6 3 5 4 8 11 12 16 17 13 8 6 4 4 2 2 2 2 1 2 1 2 1 1 1 1 2 2 2 2 2 4 3 4 6 6 5 5 4 3 3 3
6 4 4 8 3 4 3 4 3 4 12 15 15 16 17 17 16 15 9 7 6 4 4 4 3 3 1 2 2 2 2 3 2 2 3 2 1 1 4 3 4 4 6 7 6 4 4 4 3
3 6 4 3 3 4 4 5 3 6 11 13 15 15 14 15 16 15 14 13 9 6 5 6 5 5 4 3 3 3 3 3 3 2 3 3 3 2 3 4 5 5 5 6 6 5 4 4 3
3 2 4 4 5 5 3 5 1 3 4 7 9 11 13 13 13 13 13 13 12 12 12 9 7 6 6 4 3 4 4 4 3 3 4 4 3 4 4 4 4 5 6 5 6 6 4 6 4
1 5 5 5 5 2 2 4 4 6 5 5 7 9 10 11 11 11 12 12 14 14 13 12 12 11 9 6 4 4 4 4 4 4 4 4 5 4 4 4 5 5 5 5 6 7 6 7 7
Wind_Direction
33 55 72 48 67 65 258 261 275 239 234 210 117 139 192 156 168 210 343 200 156 150 161 161 115 115 111 119 128 124 119 105 72 37 21 15 2 1 354 349 338 329 317 310 308 300 295 277 277
130 129 46 77 95 101 262 248 235 225 322 134 155 159 138 252 295 340 121 185 159 146 127 119 123 136 144 142 135 128 120 97 73 44 17 8 360 356 349 344 338 330 323 310 305 306 323 324 286
139 48 89 100 121 187 206 208 258 288 221 212 251 170 167 222 225 202 184 154 139 127 120 127 137 150 150 143 133 126 117 101 73 34 11 1 350 343 337 335 329 326 323 316 308 306 313 320 339
119 27 39 105 208 250 219 206 162 297 156 272 134 298 306 272 147 174 148 148 141 138 139 139 150 154 148 140 132 127 119 94 60 28 4 353 348 342 340 334 328 324 320 314 309 304 299 307 316
35 69 81 107 249 257 224 263 216 212 155 196 191 259 255 96 44 126 144 148 147 144 147 148 157 155 151 145 138 129 114 92 63 29 360 352 343 337 335 331 326 324 321 315 309 304 300 300 300
48 106 85 207 242 250 257 221 160 218 168 212 207 193 249 102 145 154 145 150 151 152 158 158 150 146 151 147 139 135 122 92 38 2 342 334 336 331 331 334 331 327 321 315 310 305 301 297 291
130 102 208 179 240 288 229 138 196 200 167 233 184 151 272 145 166 152 148 146 148 150 153 157 144 146 145 148 143 133 113 80 351 341 334 331 329 326 330 336 335 325 316 320 324 317 307 298 290
111 93 135 230 212 254 215 166 153 178 244 44 186 213 256 137 143 130 130 141 151 161 169 165 153 140 150 156 141 110 73 62 356 354 353 343 340 320 303 289 297 324 325 315 310 305 299 297 294
130 81 212 234 178 256 34 29 138 344 268 253 214 203 118 120 125 120 128 165 173 184 189 173 170 160 185 165 109 83 63 38 14 358 351 351 314 295 289 302 309 321 328 321 314 308 310 297 295
125 158 207 208 196 184 179 143 300 305 309 254 273 196 96 135 161 170 182 191 196 194 195 188 186 177 186 173 125 95 64 24 355 339 326 313 318 312 309 307 324 339 328 318 315 303 304 300 280
175 198 213 227 220 214 232 272 224 186 255 220 226 233 165 176 187 201 210 202 207 193 194 191 189 182 186 170 141 99 62 0 329 313 295 309 314 311 318 321 327 323 320 311 305 304 293 288 280
177 225 185 277 101 148 238 305 272 197 225 218 222 227 153 196 206 210 215 213 185 188 196 186 188 180 182 157 163 144 81 353 298 295 280 274 275 304 321 320 323 314 318 308 304 304 302 297 284
214 226 171 239 267 253 314 244 246 259 245 258 254 247 221 223 222 226 227 211 180 201 197 188 176 181 172 164 159 141 191 276 289 273 269 262 253 257 296 307 308 315 309 315 317 313 314 327 299
200 203 282 306 276 260 226 263 172 263 153 194 200 252 242 232 231 226 215 216 200 198 196 173 183 175 160 161 158 145 185 277 264 269 281 289 282 295 267 329 317 313 335 318 318 310 321 353 21
160 273 292 225 229 232 191 262 232 269 278 279 281 270 261 241 230 227 221 213 195 198 176 177 170 161 160 156 141 134 202 282 278 292 304 309 345 323 359 337 322 333 310 319 313 27 66 49 41
113 47 239 130 169 261 162 276 272 1 52 307 294 280 264 248 230 233 225 212 183 166 175 156 163 160 152 148 130 125 106 288 298 315 319 330 336 332 346 331 324 318 316 314 330 85 79 62 55
18 199 219 353 206 102 113 280 294 1 340 298 283 272 272 275 256 250 229 202 177 168 153 155 154 157 141 129 118 104 93 107 299 304 321 349 346 339 351 310 329 318 319 338 87 68 86 79 64
187 199 213 258 4 33 244 266 280 284 274 277 286 287 276 285 292 311 277 176 158 149 144 143 140 141 128 114 105 92 90 66 21 346 336 15 359 33 296 337 335 319 321 84 89 100 91 95 87
118 94 55 8 24 312 263 279 281 285 267 278 295 294 313 313 348 6 32 106 111 114 133 142 137 140 133 119 122 117 125 62 37 12 16 53 81 123 21 347 2 342 97 101 97 112 106 105 125
63 37 301 296 19 84 339 295 275 280 276 291 311 324 335 342 356 30 42 62 131 134 135 135 133 144 136 106 123 130 157 171 97 12 26 40 355 318 98 342 43 78 104 111 116 145 97 79 334
191 191 180 213 332 63 331 298 339 300 29 1 12 336 3 15 357 37 61 85 111 131 138 135 132 137 129 116 108 94 182 155 125 32 347 349 295 297 289 313 106 118 101 121 133 129 80 119 54
176 195 164 162 93 236 14 284 310 313 345 35 18 12 0 1 11 35 82 93 110 97 102 109 120 120 116 127 141 164 156 141 122 116 278 281 254 232 290 340 119 129 112 123 138 120 104 105 97
208 125 145 116 112 32 338 85 270 10 2 0 359 355 353 8 12 32 65 112 96 106 113 121 117 107 116 132 142 141 129 123 133 197 253 248 245 237 261 249 135 144 149 157 150 131 103 82 59
156 86 64 57 90 55 277 133 287 17 326 330 346 352 355 5 14 29 45 78 74 91 107 118 113 104 116 125 130 127 154 171 193 189 209 242 218 237 240 246 169 157 163 174 164 165 149 129 94
30 105 9 358 11 214 24 45 251 40 4 5 350 349 352 2 15 19 54 75 61 83 107 101 92 100 113 132 153 153 164 191 219 227 218 215 216 217 223 215 174 169 173 167 159 169 166 156 133
195 180 160 198 195 237 88 229 256 108 46 28 24 6 8 8 7 20 39 75 80 26 31 58 96 96 135 214 259 226 245 242 233 237 239 233 221 226 234 198 183 175 174 174 176 193 171 163 167
187 187 161 105 38 49 223 280 264 47 20 19 17 19 13 5 5 11 31 21 10 26 342 335 333 314 325 275 284 270 250 254 257 273 264 282 228 222 257 187 176 177 174 183 188 188 193 173 170
148 167 83 6 147 234 284 285 234 356 354 3 9 13 9 10 11 14 15 19 6 8 348 344 344 325 321 302 266 270 260 252 263 271 272 277 293 263 255 198 194 194 195 195 199 197 188 181 167
122 186 54 127 155 169 169 250 46 103 12 7 7 10 10 11 12 15 16 13 10 13 11 1 355 334 321 316 295 280 278 263 254 253 258 266 282 274 246 224 198 193 202 198 198 216 198 197 178
64 199 171 141 217 224 142 262 103 98 59 18 14 19 14 10 10 19 20 17 15 10 6 4 2 356 336 312 301 286 286 287 278 270 265 264 262 273 254 231 220 204 203 201 203 204 204 207 204